"2004/01/01", 6.4, 7.1, 5.9
"2004/01/02", 6.7, 7.2, 6.3
"2004/01/03", 6.9, 7.4, 6.6
"2004/01/04", 7.1, 7.6, 6.8
"2004/01/05", 6.7, 6.9, 6.3
"2004/01/06", 6.6, 7.2, 6.1
"2004/01/07", 6.3, 6.5, 6.1
"2004/01/08", 5.9, 6.2, 4.8
"2004/01/09", 5.6, 6.0, 5.0
"2004/01/10", 5.3, 5.9, 4.7
"2004/01/11", 5.0, 5.6, 4.2
"2004/01/12", 4.7, 5.2, 3.9
"2004/01/13", 5.1, 5.5, 4.8
"2004/01/14", 4.5, 4.9, 3.7
"2004/01/15", 3.9, 4.4, 3.3
"2004/01/16", 3.6, 4.1, 2.9
"2004/01/17", 3.2, 3.3, 3.1
"2004/01/18", 3.6, 4.4, 3.3
"2004/01/19", 3.9, 4.6, 3.6
"2004/01/20", 4.0, 4.8, 3.5
"2004/01/21", 4.2, 4.7, 4.0
"2004/01/22", 4.4, 5.2, 3.9
"2004/01/23", 3.9, 4.8, 3.4
"2004/01/24", 3.8, 4.0, 3.5
"2004/01/25", 3.5, 4.0, 2.9
"2004/01/26", 3.8, 4.2, 3.3
"2004/01/27", 3.7, 4.1, 3.4
"2004/01/28", 3.9, 4.8, 3.3
"2004/01/29", 4.0, 4.7, 3.3
"2004/01/30", 4.3, 5.2, 3.8
"2004/01/31", 4.5, 5.0, 4.1
"2004/02/01", 4.8, 5.7, 4.2
"2004/02/02", 5.0, 5.7, 4.6
"2004/02/03", 5.1, 5.8, 4.8
"2004/02/04", 5.3, 6.1, 4.7
"2004/02/05", 5.2, 5.8, 4.4
"2004/02/06", 5.0, 5.7, 4.1
"2004/02/07", 4.9, 5.4, 4.2
"2004/02/08", 4.8, 5.5, 4.1
"2004/02/09", 5.1, 5.7, 4.6
"2004/02/10", 5.1, 5.5, 4.7
"2004/02/11", 5.1, 6.1, 4.4
"2004/02/12", 5.6, 6.3, 5.1
"2004/02/13", 5.8, 6.8, 5.4
"2004/02/14", 6.4, 7.5, 5.7
"2004/02/15", 6.6, 7.6, 6.0
"2004/02/16", 6.0, 7.0, 4.6
"2004/02/17", 6.2, 6.8, 5.7
"2004/02/18", 6.3, 7.4, 5.6
"2004/02/19", 6.7, 7.9, 6.0
"2004/02/20", 6.6, 7.2, 6.3
"2004/02/21", 6.7, 7.3, 6.5
"2004/02/22", 8.2,10.5, 6.7
"2004/02/23", 9.4,10.2, 8.6
"2004/02/24", 8.3, 9.1, 7.7
"2004/02/25", 8.6, 9.6, 8.1
"2004/02/26", 9.0, 9.8, 8.5
"2004/02/27", 8.9, 9.7, 8.2
"2004/02/28", 8.7, 9.7, 8.0
"2004/02/29", 8.7, 9.0, 8.6
"2004/03/01", 8.3, 8.9, 7.9
"2004/03/02", 7.9, 8.2, 7.5
"2004/03/03", 7.8, 8.4, 7.4
"2004/03/04", 7.9, 9.3, 7.3
"2004/03/05", 7.9, 8.6, 7.3
"2004/03/06", 8.1, 9.4, 7.5
"2004/03/07", 8.0, 9.8, 7.3
"2004/03/08", 7.5, 8.3, 6.7
"2004/03/09", 7.7, 8.4, 7.0
"2004/03/10", 8.6, 9.8, 7.7
"2004/03/11",10.2,12.0, 9.0
"2004/03/12", 9.6, 9.9, 9.2
"2004/03/13", 9.2,10.0, 8.8
"2004/03/14", 9.1, 9.7, 8.7
"2004/03/15", 9.7,10.8, 9.1
"2004/03/16",10.1,11.4, 9.5
"2004/03/17",11.5,13.4, 9.8
"2004/03/18",11.7,12.8,10.7
"2004/03/19",10.6,11.8,10.1
"2004/03/20",10.0,10.4, 9.5
"2004/03/21", 9.9,10.7, 9.2
"2004/03/22", 9.6, 9.8, 9.3
"2004/03/23", 9.1, 9.4, 8.8
"2004/03/24", 9.2, 9.6, 8.8
"2004/03/25", 9.3, 9.5, 9.0
"2004/03/26", 9.7,10.6, 9.3
"2004/03/27",10.0,10.9, 9.1
"2004/03/28",10.8,12.6,10.1
"2004/03/29",11.0,12.0,10.4
"2004/03/30",11.8,12.1,11.5
"2004/03/31",12.3,13.5,11.7
"2004/04/01",12.5,14.0,11.7
"2004/04/02",12.8,14.2,12.3
"2004/04/03",12.6,14.3,11.4
"2004/04/04",12.0,12.6,11.0
"2004/04/05",11.7,12.7,10.9
"2004/04/06",12.1,12.8,11.1
"2004/04/07",12.9,14.8,12.4
"2004/04/08",12.9,14.1,12.1
"2004/04/09",13.0,14.2,12.5
"2004/04/10",13.7,15.1,12.7
"2004/04/11",14.1,15.4,13.4
"2004/04/12",14.0,15.9,13.6
"2004/04/13",13.8,14.1,13.5
"2004/04/14",14.0,15.1,12.8
"2004/04/15",14.7,15.8,13.5
"2004/04/16",14.8,15.8,14.1
"2004/04/17",15.3,16.4,14.8
"2004/04/18",15.6,17.4,14.7
"2004/04/19",15.8,16.4,15.5
"2004/04/20",16.2,17.5,15.9
"2004/04/21",16.4,17.7,15.3
"2004/04/22",17.4,19.3,16.5
"2004/04/23",17.0,17.3,16.6
"2004/04/24",16.7,18.3,15.9
"2004/04/25",16.1,17.1,14.6
"2004/04/26",16.1,17.5,15.5
"2004/04/27",16.2,16.7,15.8
"2004/04/28",16.2,16.5,15.7
"2004/04/29",16.3,18.4,15.4
"2004/04/30",16.3,17.1,15.6
"2004/05/01",16.8,17.2,16.5
"2004/05/02",16.3,16.7,16.0
"2004/05/03",15.9,16.5,14.7
"2004/05/04",17.2,18.8,15.9
"2004/05/05",16.8,17.5,16.2
"2004/05/06",16.4,16.8,15.9
"2004/05/07",17.3,19.9,16.0
"2004/05/08",17.1,17.6,16.8
"2004/05/09",17.3,17.7,16.9
"2004/05/10",17.4,17.8,17.2
"2004/05/11",17.8,19.5,17.3
"2004/05/12",18.6,19.1,18.2
"2004/05/13",19.4,20.8,18.1
"2004/05/14",20.0,21.0,19.1
"2004/05/15",19.4,20.9,18.7
"2004/05/16",19.0,19.2,18.9
"2004/05/17",19.3,19.8,18.8
"2004/05/18",19.6,19.8,19.3
"2004/05/19",19.5,20.1,19.1
"2004/05/20",18.9,19.3,18.6
"2004/05/21",18.5,19.8,17.5
"2004/05/22",17.8,18.5,17.5
"2004/05/23",17.2,17.5,16.9
"2004/05/24",17.6,19.4,16.4
"2004/05/25",18.3,20.6,17.4
"2004/05/26",18.6,19.8,17.9
"2004/05/27",19.3,19.8,18.9
"2004/05/28",19.6,20.5,18.9
"2004/05/29",20.0,20.8,19.5
"2004/05/30",21.4,24.1,20.1
"2004/05/31",23.8,25.3,22.2
"2004/06/01",22.0,23.2,21.3
"2004/06/02",21.6,23.1,20.4
"2004/06/03",21.6,22.3,21.1
"2004/06/04",21.8,24.5,20.4
"2004/06/05",22.2,23.4,21.5
"2004/06/06",22.3,22.9,22.1
"2004/06/07",22.2,22.8,21.8
"2004/06/08",22.1,22.7,21.3
"2004/06/09",21.0,21.3,20.5
"2004/06/10",21.1,22.1,20.2
"2004/06/11",21.3,21.5,21.0
"2004/06/12",21.3,22.7,20.0
"2004/06/13",22.0,22.4,21.5
"2004/06/14",22.1,23.7,20.9
"2004/06/15",22.6,25.2,21.5
"2004/06/16",22.6,23.5,22.1
"2004/06/17",22.5,23.3,21.5
"2004/06/18",22.7,23.5,22.2
"2004/06/19",23.2,23.8,23.0
"2004/06/20",23.9,24.9,23.3
"2004/06/21",24.3,24.8,24.1
"2004/06/22",24.7,25.5,24.0
"2004/06/23",25.5,27.6,24.5
"2004/06/24",25.3,28.4,24.8
"2004/06/25",25.8,26.2,25.0
"2004/06/26",25.2,25.8,24.8
"2004/06/27",24.8,26.0,23.5
"2004/06/28",24.9,26.3,23.9
"2004/06/29",25.1,27.2,24.5
"2004/06/30",25.5,25.8,25.1
"2004/07/01",25.4,25.8,24.9
"2004/07/02",24.6,25.0,24.3
"2004/07/03",24.3,25.1,22.9
"2004/07/04",24.7,26.1,23.5
"2004/07/05",25.5,26.2,24.8
"2004/07/06",25.3,25.9,24.9
"2004/07/07",26.6,29.6,25.3
"2004/07/08",27.2,28.4,25.9
"2004/07/09",27.5,29.6,26.1
"2004/07/10",26.9,27.6,26.0
"2004/07/11",27.2,29.5,26.1
"2004/07/12",27.0,27.8,26.6
"2004/07/13",27.1,29.4,26.0
"2004/07/14",27.0,28.8,25.7
"2004/07/15",27.3,28.4,26.7
"2004/07/16",27.5,29.5,26.8
"2004/07/17",27.1,27.6,26.8
"2004/07/18",27.4,29.2,26.2
"2004/07/19",28.5,29.1,27.9
"2004/07/20",27.6,28.2,27.2
"2004/07/21",29.1,30.8,27.5
"2004/07/22",28.4,29.4,27.8
"2004/07/23",28.4,29.9,26.8
"2004/07/24",28.9,30.1,28.1
"2004/07/25",29.1,29.6,28.7
"2004/07/26",28.9,29.3,28.7
"2004/07/27",29.4,31.4,28.4
"2004/07/28",28.9,29.2,28.4
"2004/07/29",28.3,29.0,28.1
"2004/07/30",28.3,28.7,27.7
"2004/07/31",28.5,29.1,28.1
"2004/08/01",28.7,29.4,28.0
"2004/08/02",28.7,29.3,28.2
"2004/08/03",28.7,29.4,28.1
"2004/08/04",28.8,29.5,28.4
"2004/08/05",28.8,29.2,28.4
"2004/08/06",28.6,29.2,28.3
"2004/08/07",29.0,30.1,28.5
"2004/08/08",28.7,29.6,28.3
"2004/08/09",28.6,29.4,28.2
"2004/08/10",28.8,30.6,28.4
"2004/08/11",28.7,29.4,28.3
"2004/08/12",29.1,31.5,27.7
"2004/08/13",29.6,31.5,28.6
"2004/08/14",29.5,31.1,28.8
"2004/08/15",28.2,29.3,26.8
"2004/08/16",27.0,27.7,26.4
"2004/08/17",27.0,27.5,26.8
"2004/08/18",27.5,28.7,26.4
"2004/08/19",27.9,28.8,27.3
"2004/08/20",27.6,28.9,26.7
"2004/08/21",27.3,28.3,26.6
"2004/08/22",26.9,27.3,26.0
"2004/08/23",26.1,26.5,25.7
"2004/08/24",25.7,26.5,24.8
"2004/08/25",26.0,26.6,25.6
"2004/08/26",26.1,27.1,25.1
"2004/08/27",25.7,26.1,25.4
"2004/08/28",24.7,25.4,24.2
"2004/08/29",23.8,24.2,23.3
"2004/08/30",23.8,26.3,22.2
"2004/08/31",25.4,26.5,24.5
"2004/09/01",25.2,26.2,25.0
"2004/09/02",25.5,26.0,25.0
"2004/09/03",25.7,27.0,24.9
"2004/09/04",25.4,25.6,25.0
"2004/09/05",24.9,25.0,24.4
"2004/09/06",25.2,26.8,24.5
"2004/09/07",25.8,26.1,25.4
"2004/09/08",26.0,27.0,25.3
"2004/09/09",26.0,26.5,25.2
"2004/09/10",25.7,26.4,24.7
"2004/09/11",25.3,25.7,24.9
"2004/09/12",25.4,27.2,24.2
"2004/09/13",25.4,26.0,24.9
"2004/09/14",25.9,26.8,25.3
"2004/09/15",25.3,26.1,24.7
"2004/09/16",24.7,26.6,23.0
"2004/09/17",24.7,25.9,23.8
"2004/09/18",24.6,25.0,24.3
"2004/09/19",24.5,25.1,23.9
"2004/09/20",24.7,25.0,24.4
"2004/09/21",25.2,26.0,24.7
"2004/09/22",25.1,25.5,24.9
"2004/09/23",24.7,25.0,24.5
"2004/09/24",24.3,24.5,24.1
"2004/09/25",24.2,24.4,24.1
"2004/09/26",23.6,24.0,23.1
"2004/09/27",22.3,23.0,22.1
"2004/09/28",22.3,22.7,21.8
"2004/09/29",22.2,22.3,22.0
"2004/09/30",22.4,23.2,21.9
"2004/10/01",22.6,23.4,21.7
"2004/10/02",22.7,23.4,22.1
"2004/10/03",22.0,22.8,21.3
"2004/10/04",20.8,21.3,20.4
"2004/10/05",19.9,20.4,19.6
"2004/10/06",19.8,21.1,18.7
"2004/10/07",20.0,21.8,19.5
"2004/10/08",19.9,20.0,19.7
"2004/10/09",19.3,19.9,18.8
"2004/10/10",18.9,19.1,18.5
"2004/10/11",18.8,19.1,18.6
"2004/10/12",19.0,19.5,18.8
"2004/10/13",19.0,19.2,18.8
"2004/10/14",18.5,18.8,18.2
"2004/10/15",18.3,19.6,17.1
"2004/10/16",18.3,18.7,17.8
"2004/10/17",17.6,17.9,17.4
"2004/10/18",17.6,18.6,17.0
"2004/10/19",17.6,17.8,17.4
"2004/10/20",17.6,17.7,17.3
"2004/10/21",17.6,17.8,17.3
"2004/10/22",17.4,18.2,17.0
"2004/10/23",17.7,18.1,17.4
"2004/10/24",17.4,17.7,17.1
"2004/10/25"," *"," *"," *"
"2004/10/26",17.1,17.5,16.8
"2004/10/27",16.2,16.8,15.9
"2004/10/28",15.6,16.1,14.9
"2004/10/29",15.6,16.4,14.6
"2004/10/30",15.6,15.7,15.4
"2004/10/31",16.0,16.6,15.6
"2004/11/01",16.4,16.6,16.1
"2004/11/02",16.5,17.2,16.2
"2004/11/03",16.6,17.0,16.3
"2004/11/04",16.6,17.4,16.1
"2004/11/05",17.0,17.7,16.4
"2004/11/06",17.2,18.1,16.7
"2004/11/07",17.2,17.9,16.6
"2004/11/08",16.9,17.5,16.6
"2004/11/09",17.1,18.2,16.4
"2004/11/10",17.3,18.0,16.8
"2004/11/11",17.3,17.8,16.8
"2004/11/12",17.3,17.7,17.0
"2004/11/13",16.7,17.1,16.3
"2004/11/14",15.9,16.5,14.7
"2004/11/15",15.2,15.6,14.7
"2004/11/16",15.1,15.5,14.6
"2004/11/17",15.0,15.5,14.0
"2004/11/18",14.8,15.1,14.4
"2004/11/19",14.5,14.7,14.3
"2004/11/20",14.7,15.2,14.1
"2004/11/21",14.9,15.8,14.4
"2004/11/22",14.8,15.4,14.5
"2004/11/23",14.9,15.7,14.2
"2004/11/24",15.0,15.7,14.6
"2004/11/25",14.8,15.3,14.4
"2004/11/26",14.0,14.6,13.4
"2004/11/27",13.9,14.2,13.4
"2004/11/28",13.6,14.1,13.0
"2004/11/29",13.3,13.5,13.1
"2004/11/30",12.7,13.1,12.4
"2004/12/01",12.5,13.4,11.3
"2004/12/02",12.4,13.3,11.5
"2004/12/03",12.1,12.7,11.6
"2004/12/04",12.1,12.4,11.9
"2004/12/05",12.9,13.8,12.1
"2004/12/06",12.2,12.6,11.5
"2004/12/07",11.5,11.9,11.1
"2004/12/08",11.6,12.3,11.1
"2004/12/09",11.3,11.7,11.1
"2004/12/10",10.9,11.2,10.3
"2004/12/11",11.2,11.6,10.9
"2004/12/12",10.5,11.0, 9.8
"2004/12/13",10.5,11.2, 9.7
"2004/12/14",10.4,10.6,10.0
"2004/12/15",10.1,10.3, 9.6
"2004/12/16",10.2,10.8, 9.9
"2004/12/17", 9.7,10.0, 9.1
"2004/12/18", 9.7,10.0, 9.5
"2004/12/19", 9.6, 9.9, 9.3
"2004/12/20", 9.5, 9.6, 9.3
"2004/12/21", 9.2, 9.5, 9.0
"2004/12/22", 9.0, 9.2, 8.7
"2004/12/23", 8.5, 8.8, 7.7
"2004/12/24", 8.2, 8.7, 6.9
"2004/12/25", 8.5, 8.8, 8.0
"2004/12/26", 8.2, 8.6, 7.4
"2004/12/27", 8.0, 8.7, 7.6
"2004/12/28", 7.9, 8.4, 7.4
"2004/12/29", 7.4, 7.8, 6.8
"2004/12/30", 6.9, 7.4, 6.4
"2004/12/31", 6.1, 6.6, 5.4
